This is the latest recevied weather packets stored in our database for station/object HP3ICC-23. If no packets are shown the sender has not sent any weather packets the latest 10 day(s).
| Time | Temp. | Humidity | Pressure | Rain* | Wind** | Luminosity | Snow |
|---|---|---|---|---|---|---|---|
| 1777650019 | 17.78° C | 70% | 1012 hPa | 0 mm | - | - | - |
| 1777648879 | 17.78° C | 70% | 1012 hPa | 0 mm | - | - | - |
| 1777648819 | 17.78° C | 70% | 1012 hPa | 0 mm | - | - | - |
| 1777647678 | 17.78° C | 69% | 1012 hPa | 0 mm | - | - | - |
| 1777647618 | 17.78° C | 69% | 1012 hPa | 0 mm | - | - | - |
| 1777646478 | 17.78° C | 71% | 1012 hPa | 0 mm | - | - | - |
| 1777646418 | 17.78° C | 71% | 1012 hPa | 0 mm | - | - | - |
| 1777645277 | 17.78° C | 78% | 1012 hPa | 0 mm | - | - | - |
| 1777645217 | 17.78° C | 78% | 1012 hPa | 0 mm | - | - | - |
| 1777644077 | 17.78° C | 76% | 1012 hPa | 0 mm | - | - | - |
| 1777644017 | 17.78° C | 76% | 1012 hPa | 0 mm | - | - | - |
| 1777642876 | 16.67° C | 76% | 1012 hPa | 0 mm | - | - | - |
| 1777642816 | 16.67° C | 76% | 1012 hPa | 0 mm | - | - | - |
| 1777641676 | 17.22° C | 86% | 1010 hPa | 0 mm | - | - | - |
| 1777641615 | 17.22° C | 86% | 1010 hPa | 0 mm | - | - | - |
| 1777640475 | 17.22° C | 81% | 1011 hPa | 0 mm | - | - | - |
| 1777640415 | 17.22° C | 81% | 1011 hPa | 0 mm | - | - | - |
| 1777639275 | 14.44° C | 87% | 1011 hPa | 0 mm | - | - | - |
| 1777639214 | 14.44° C | 87% | 1011 hPa | 0 mm | - | - | - |
| 1777638074 | 15° C | 87% | 1010 hPa | 0 mm | - | - | - |
| 1777638014 | 15° C | 87% | 1010 hPa | 0 mm | - | - | - |
| 1777636874 | 15.56° C | 87% | 1011 hPa | 0.25 mm | - | - | - |
| 1777636813 | 15.56° C | 87% | 1011 hPa | 0.25 mm | - | - | - |
| 1777635673 | 13.33° C | 86% | 1011 hPa | 0 mm | - | - | - |
| 1777635613 | 13.33° C | 86% | 1011 hPa | 0 mm | - | - | - |
* Rain latest hour (hover to see other rain measurements)
** Current wind speed in m/s (hover to see current wind gust speed)